DW8556 Weather Reports


time (UTC)temp
C
wind
direction
speed
KPH
gust
KPH
rain 1hr
cm
rain 24hr
cm
rain mn
cm
humidity
%
barometer
mb
20260510150016 27 252 4.8 6.4 0.00 1.32 0.00 71 1022.0
20260510145510 27 195 0.0 6.4 0.00 1.32 0.00 74 1022.1
20260510145005 26 270 1.6 6.4 0.00 1.32 0.00 75 1022.1
20260510144603 26 269 1.6 6.4 0.00 1.32 0.00 75 1022.2
20260510144057 26 269 1.6 6.4 0.00 1.32 0.00 76 1022.1
20260510143558 26 268 3.2 8.0 0.00 1.32 0.00 76 1022.1
20260510143053 25 268 0.0 8.0 0.00 1.32 0.00 76 1022.1
20260510142547 25 220 1.6 4.8 0.00 1.32 0.00 77 1022.1
20260510142045 25 265 3.2 4.8 0.00 1.32 0.00 77 1022.0
20260510141541 25 76 1.6 4.8 0.00 1.32 0.00 79 1022.0
20260510141039 24 281 1.6 4.8 0.00 1.32 0.00 80 1021.8
20260510140535 24 262 0.0 3.2 0.00 1.32 0.00 81 1021.8
20260510140031 23 266 0.0 1.6 0.00 1.32 0.00 82 1021.8
20260510135528 23 268 0.0 3.2 0.00 1.32 0.00 82 1021.8
20260510135024 23 252 0.0 3.2 0.00 1.32 0.00 82 1021.8
20260510134520 23 263 0.0 3.2 0.00 1.32 0.00 82 1021.8
20260510134016 23 123 1.6 3.2 0.00 1.32 0.00 83 1021.8
20260510133515 23 149 0.0 1.6 0.00 1.32 0.00 83 1021.7
20260510133012 22 268 0.0 4.8 0.00 1.32 0.00 83 1021.8
20260510132510 22 246 0.0 4.8 0.00 1.32 0.00 83 1021.7
20260510132007 22 258 0.0 1.6 0.00 1.32 0.00 83 1021.6
20260510131509 22 193 0.0 3.2 0.00 1.32 0.00 83 1021.5
20260510131002 22 172 0.0 3.2 0.00 1.32 0.00 83 1021.5
20260510130502 22 158 0.0 1.6 0.00 1.32 0.00 83 1021.5
20260510130058 22 72 0.0 1.6 0.00 1.32 0.00 83 1021.6
20260510125554 22 96 0.0 3.2 0.00 1.32 0.00 83 1021.5
20260510125049 22 155 0.0 3.2 0.00 1.32 0.00 83 1021.5
20260510124555 21 136 0.0 1.6 0.00 1.32 0.00 83 1021.5
20260510124046 21 136 0.0 1.6 0.00 1.32 0.00 83 1021.5
20260510123541 21 138 0.0 0.0 0.00 1.32 0.00 83 1021.3
20260510123037 21 138 0.0 0.0 0.00 1.32 0.00 83 1021.3
20260510122532 21 138 0.0 0.0 0.00 1.32 0.00 83 1021.2
20260510122028 21 138 0.0 0.0 0.00 1.32 0.00 83 1021.2
20260510121525 21 138 0.0 0.0 0.00 1.32 0.00 83 1021.1
20260510121023 21 138 0.0 0.0 0.00 1.32 0.00 83 1021.1
20260510120522 21 138 0.0 0.0 0.00 1.32 0.00 83 1021.0
20260510120019 20 138 0.0 0.0 0.00 1.32 0.00 83 1020.9
20260510115509 20 138 0.0 0.0 0.00 1.32 0.00 83 1020.7
20260510115008 20 138 0.0 0.0 0.00 1.32 0.00 83 1020.7
20260510114511 20 138 0.0 0.0 0.00 1.32 0.00 83 1020.7
20260510114002 20 138 0.0 0.0 0.00 1.32 0.00 83 1020.6
20260510113559 20 138 0.0 0.0 0.00 1.32 0.00 83 1020.6
20260510113056 20 138 0.0 0.0 0.00 1.32 0.00 83 1020.4
20260510112556 20 138 0.0 0.0 0.00 1.32 0.00 83 1020.4
20260510112050 20 138 0.0 0.0 0.00 1.32 0.00 83 1020.3
20260510111551 20 138 0.0 0.0 0.00 1.32 0.00 83 1020.3
20260510111044 20 138 0.0 0.0 0.00 1.32 0.00 83 1020.2
20260510110543 20 138 0.0 0.0 0.00 1.32 0.00 83 1020.0
20260510110044 20 138 0.0 0.0 0.00 1.32 0.00 83 1020.0
20260510105537 20 138 0.0 0.0 0.00 1.32 0.00 83 1019.9
20260510105035 20 138 0.0 0.0 0.00 1.32 0.00 83 1019.9
20260510104530 20 138 0.0 0.0 0.00 1.32 0.00 83 1019.8
20260510104028 20 138 0.0 0.0 0.00 1.32 0.00 83 1019.8
20260510103525 20 138 0.0 0.0 0.00 1.32 0.00 83 1019.7
20260510103022 20 138 0.0 0.0 0.00 1.32 0.00 83 1019.7
20260510102521 20 138 0.0 0.0 0.00 1.32 0.00 83 1019.7
20260510102022 20 138 0.0 0.0 0.00 1.32 0.00 83 1019.4
20260510101515 20 138 0.0 0.0 0.00 1.32 0.00 83 1019.4
20260510101013 20 138 0.0 0.0 0.00 1.32 0.00 83 1019.4
20260510100510 20 138 0.0 0.0 0.00 1.32 0.00 83 1019.4
20260510100007 20 138 0.0 0.0 0.00 1.32 0.00 83 1019.3
20260510095503 20 138 0.0 0.0 0.00 1.32 0.00 83 1019.2
20260510095005 19 138 0.0 0.0 0.00 1.32 0.00 83 1019.1
20260510094613 19 138 0.0 0.0 0.00 1.32 0.00 83 1019.1
20260510094055 19 138 0.0 0.0 0.00 1.32 0.00 83 1019.2
20260510093554 19 138 0.0 0.0 0.00 1.32 0.00 83 1019.2
20260510093111 19 138 0.0 0.0 0.00 1.32 0.00 83 1019.1
20260510092549 19 138 0.0 0.0 0.00 1.32 0.00 83 1019.1
20260510092048 19 138 0.0 0.0 0.00 1.32 0.00 83 1019.0
20260510091546 19 138 0.0 0.0 0.00 1.32 0.00 83 1018.9
20260510091046 19 138 0.0 0.0 0.00 1.32 0.00 83 1019.0
20260510090543 19 138 0.0 0.0 0.00 1.32 0.00 83 1018.8
20260510090045 19 138 0.0 0.0 0.00 1.32 0.00 83 1018.8
20260510085542 19 138 0.0 0.0 0.00 1.32 0.00 83 1018.8
20260510085043 19 138 0.0 0.0 0.00 1.32 0.00 83 1018.7
20260510084539 20 138 0.0 0.0 0.00 1.32 0.00 83 1018.7
20260510084037 20 138 0.0 0.0 0.00 1.32 0.00 83 1018.6
20260510083534 20 138 0.0 0.0 0.00 1.32 0.00 83 1018.6
20260510083048 20 138 0.0 0.0 0.00 1.32 0.00 83 1018.4
20260510082529 20 138 0.0 0.0 0.00 1.32 0.00 83 1018.4
20260510082029 20 138 0.0 0.0 0.00 1.32 0.00 83 1018.5
20260510081525 20 138 0.0 0.0 0.00 1.32 0.00 83 1018.5
20260510081022 20 138 0.0 0.0 0.00 1.32 0.00 83 1018.4
20260510080520 20 138 0.0 0.0 0.00 1.32 0.00 83 1018.3
20260510080024 20 138 0.0 0.0 0.00 1.32 0.00 83 1018.3
20260510075517 20 138 0.0 0.0 0.00 1.32 0.00 83 1018.3
20260510075016 20 138 0.0 0.0 0.00 1.32 0.00 83 1018.3
20260510074513 20 138 0.0 0.0 0.00 1.32 0.00 83 1018.3
20260510074017 20 138 0.0 0.0 0.00 1.32 0.00 83 1018.4
20260510073511 20 138 0.0 0.0 0.00 1.32 0.00 83 1018.4
20260510073018 20 138 0.0 0.0 0.00 1.32 0.00 83 1018.4
20260510072509 20 138 0.0 0.0 0.00 1.32 0.00 83 1018.4
20260510072004 20 138 0.0 0.0 0.00 1.32 0.00 83 1018.4
20260510071501 20 138 0.0 0.0 0.00 1.32 0.00 83 1018.4
20260510071059 20 138 0.0 0.0 0.00 1.32 0.00 83 1018.4
20260510070559 20 138 0.0 0.0 0.00 1.32 0.00 83 1018.4
20260510070055 20 138 0.0 0.0 0.00 1.32 0.00 83 1018.4
20260510065554 20 138 0.0 0.0 0.00 1.32 0.00 83 1018.4
20260510065050 20 138 0.0 0.0 0.00 1.32 0.00 83 1018.4
20260510064558 20 138 0.0 0.0 0.00 1.32 0.00 83 1018.4
20260510064044 20 138 0.0 0.0 0.00 1.32 0.00 83 1018.5
20260510063543 20 138 0.0 0.0 0.00 1.32 0.00 83 1018.5
20260510063040 20 126 0.0 0.0 0.00 1.32 0.00 83 1018.5
20260510062539 20 126 0.0 1.6 0.00 1.32 0.00 83 1018.5
20260510062035 20 120 0.0 1.6 0.00 1.32 0.00 83 1018.6
20260510061534 20 120 0.0 1.6 0.00 1.32 0.00 83 1018.6
20260510061027 20 145 0.0 1.6 0.00 1.32 0.00 83 1018.7
20260510060525 20 148 0.0 3.2 0.00 1.32 0.00 83 1018.9
20260510060035 20 148 0.0 3.2 0.00 1.32 0.00 83 1018.9
20260510055518 20 203 0.0 1.6 0.00 1.32 0.00 83 1018.8
20260510055016 20 167 0.0 1.6 0.00 1.32 0.00 83 1018.9
20260510054513 20 135 0.0 1.6 0.00 1.32 0.00 83 1018.9
20260510054014 20 169 0.0 4.8 0.00 1.32 0.00 83 1019.0
20260510053509 20 239 0.0 4.8 0.00 1.32 0.00 83 1019.1
20260510053004 20 205 0.0 4.8 0.00 1.32 0.00 83 1019.0
20260510052504 20 209 0.0 4.8 0.00 1.32 0.00 83 1019.1
20260510052100 20 195 0.0 4.8 0.00 1.32 0.00 83 1019.1
20260510051604 20 195 0.0 3.2 0.00 1.32 0.00 83 1019.1
20260510051055 20 160 0.0 3.2 0.00 1.32 0.00 83 1019.2
20260510050557 20 124 0.0 4.8 0.00 1.32 0.00 83 1019.3
20260510050050 20 98 0.0 4.8 0.00 1.32 0.00 83 1019.3
20260510045545 20 91 0.0 3.2 0.00 1.32 0.00 83 1019.4
20260510045040 20 79 0.0 4.8 0.00 1.32 0.00 83 1019.6
20260510044539 20 153 0.0 1.6 0.00 1.32 0.00 83 1019.7
20260510044036 20 158 0.0 1.6 0.00 1.32 0.00 83 1019.8
20260510043534 20 128 0.0 1.6 0.00 1.32 0.00 83 1019.9
20260510043034 20 159 0.0 0.0 0.00 1.32 0.00 83 1019.9
20260510042525 20 156 0.0 0.0 0.00 1.32 0.00 83 1020.0
20260510042023 20 156 0.0 0.0 0.03 1.32 0.00 83 1020.0
20260510041521 20 191 0.0 0.0 0.03 1.32 0.00 83 1020.2
20260510041017 20 191 0.0 0.0 0.03 1.32 0.00 83 1020.2
20260510040515 20 189 0.0 0.0 0.03 1.32 0.00 83 1020.2
20260510040013 20 191 0.0 0.0 0.03 1.32 0.00 83 1020.3
20260510035510 20 191 0.0 0.0 0.03 1.32 1.32 83 1020.3
20260510035010 20 191 0.0 0.0 0.03 1.32 1.32 83 1020.3
20260510034513 20 191 0.0 0.0 0.03 1.32 1.32 82 1020.3
20260510034004 20 191 0.0 1.6 0.03 1.32 1.32 82 1020.3
20260510033602 20 120 0.0 1.6 0.03 1.32 1.32 82 1020.2
20260510033108 20 120 0.0 1.6 0.03 1.32 1.32 82 1020.1
20260510032555 20 120 0.0 1.6 0.03 1.32 1.32 82 1020.0
20260510032052 20 120 0.0 0.0 0.00 1.30 1.30 82 1020.1
20260510031549 20 120 0.0 0.0 0.00 1.30 1.30 82 1020.2
20260510031046 20 120 0.0 0.0 0.00 1.30 1.30 82 1020.3
20260510030542 20 120 0.0 1.6 0.00 1.30 1.30 82 1020.2
20260510030050 20 120 0.0 1.6 0.00 1.30 1.30 82 1020.2
20260510025538 20 114 0.0 1.6 0.00 1.30 1.30 82 1020.1
20260510025035 20 121 0.0 1.6 0.00 1.30 1.30 82 1020.1
20260510024533 20 122 0.0 1.6 0.00 1.30 1.30 82 1020.1
20260510024031 20 105 0.0 1.6 0.00 1.30 1.30 82 1020.0
20260510023529 20 128 0.0 1.6 0.00 1.30 1.30 82 1020.0
20260510023025 20 129 0.0 1.6 0.00 1.30 1.30 82 1020.0
20260510022526 20 129 0.0 1.6 0.00 1.30 1.30 82 1020.1
20260510022023 20 129 0.0 1.6 0.00 1.30 1.30 82 1019.9
20260510021521 20 116 0.0 1.6 0.00 1.30 1.30 82 1019.7
20260510021018 20 116 0.0 0.0 0.00 1.30 1.30 82 1019.6
20260510020520 20 116 0.0 0.0 0.00 1.30 1.30 82 1019.7
20260510020016 20 116 0.0 1.6 0.00 1.30 1.30 82 1019.6
20260510015513 20 116 0.0 1.6 0.00 1.30 1.30 82 1019.4
20260510015011 20 117 0.0 1.6 0.00 1.30 1.30 82 1019.5
20260510014511 20 98 0.0 1.6 0.00 1.30 1.30 82 1019.2
20260510014008 20 90 0.0 1.6 0.00 1.30 1.30 82 1018.9
20260510013508 20 138 0.0 0.0 0.00 1.30 1.30 82 1019.1
20260510013007 20 138 0.0 1.6 0.00 1.30 1.30 82 1019.1
20260510012502 20 138 0.0 0.0 0.00 1.30 1.30 82 1019.0
20260510012059 20 138 0.0 1.6 0.00 1.30 1.30 82 1018.8
20260510011557 20 138 0.0 1.6 0.00 1.30 1.30 82 1018.8
20260510011054 20 137 0.0 1.6 0.00 1.30 1.30 82 1018.7
20260510010549 20 77 0.0 0.0 0.00 1.30 1.30 81 1018.8
20260510010047 20 77 0.0 0.0 0.00 1.30 1.30 81 1018.9
20260510005547 20 77 0.0 1.6 0.00 1.30 1.30 81 1018.9
20260510005042 20 77 0.0 1.6 0.00 1.30 1.30 81 1018.7
20260510004547 20 76 0.0 1.6 0.00 1.30 1.30 81 1018.4
20260510004039 20 77 0.0 1.6 0.00 1.30 1.30 81 1018.4
20260510003537 20 77 0.0 0.0 0.00 1.30 1.30 81 1018.3
20260510003038 20 76 0.0 1.6 0.00 1.30 1.30 81 1018.2
20260510002529 20 77 0.0 1.6 0.00 1.30 1.30 81 1018.2
20260510002026 20 60 0.0 1.6 0.00 1.30 1.30 80 1018.4
20260510001524 20 6 0.0 0.0 0.05 1.30 1.30 80 1018.8
20260510001020 20 6 0.0 1.6 0.08 1.30 1.30 80 1018.6
20260510000517 20 6 0.0 1.6 0.08 1.30 1.30 80 1018.6
20260510000020 20 75 0.0 3.2 0.10 1.30 1.30 80 1018.6
20260509235514 20 79 0.0 3.2 0.13 1.30 1.30 80 1018.5
20260509235012 20 100 0.0 1.6 0.15 1.30 1.30 79 1018.7
20260509234514 20 100 0.0 1.6 0.18 1.30 1.30 79 1018.4
20260509234006 20 100 0.0 1.6 0.25 1.30 1.30 79 1018.4
20260509233504 21 38 0.0 1.6 0.30 1.30 1.30 79 1018.4
20260509233001 21 37 0.0 1.6 0.36 1.30 1.30 79 1018.4
20260509232559 21 37 0.0 1.6 0.38 1.30 1.30 78 1018.6
20260509232055 21 47 0.0 1.6 0.41 1.30 1.30 78 1018.6
20260509231550 21 4 0.0 0.0 0.00 0.00 1.24 78 1019.0
20260509231047 21 51 0.0 1.6 0.33 1.22 1.22 78 1019.0
20260509230545 21 328 0.0 0.0 0.33 1.22 1.22 78 1019.1
20260509230044 21 292 0.0 1.6 0.30 1.19 1.19 76 1019.2
20260509225542 21 292 0.0 1.6 0.30 1.17 1.17 75 1019.2
20260509225043 21 19 0.0 3.2 0.30 1.14 1.14 75 1019.2
20260509224538 21 279 0.0 6.4 0.28 1.12 1.12 74 1019.2
20260509224035 21 292 0.0 6.4 0.20 1.04 1.04 74 1019.4
20260509223534 21 261 0.0 1.6 0.15 0.99 0.99 73 1019.4
20260509223035 21 304 0.0 1.6 0.10 0.94 0.94 73 1019.5
20260509222530 21 266 0.0 1.6 0.08 0.91 0.91 73 1019.5
20260509222029 21 264 0.0 1.6 0.05 0.89 0.89 73 1019.3
20260509221525 21 243 0.0 1.6 0.05 0.89 0.89 73 1019.1
20260509221023 21 289 0.0 1.6 0.05 0.89 0.89 72 1019.0
20260509220520 22 265 0.0 1.6 0.05 0.89 0.89 72 1018.9
20260509220025 22 313 0.0 1.6 0.03 0.86 0.86 72 1018.9
20260509215517 22 294 0.0 1.6 0.00 0.84 0.84 72 1018.9
20260509215013 22 293 0.0 1.6 0.00 0.84 0.84 72 1018.9
20260509214512 22 274 0.0 1.6 0.00 0.84 0.84 73 1018.8
20260509214014 22 257 0.0 4.8 0.00 0.84 0.84 74 1018.7
20260509213506 22 326 0.0 4.8 0.00 0.84 0.84 74 1018.5
20260509213004 22 307 0.0 3.2 0.00 0.84 0.84 75 1018.4
20260509212502 22 264 0.0 3.2 0.00 0.84 0.84 75 1018.4
20260509212003 22 303 0.0 3.2 0.00 0.84 0.84 75 1018.4
20260509211559 21 321 0.0 3.2 0.00 0.84 0.84 75 1018.4
20260509211057 22 315 0.0 1.6 0.00 0.84 0.84 75 1018.3
20260509210553 21 360 0.0 1.6 0.00 0.84 0.84 75 1018.3
20260509205549 21 336 0.0 1.6 0.03 0.91 0.84 74 1018.3
20260509205047 21 359 0.0 6.4 0.03 0.91 0.84 74 1018.3
20260509204546 21 274 0.0 6.4 0.03 0.91 0.84 73 1018.4
20260509204044 21 318 0.0 8.0 0.03 0.91 0.84 73 1018.3
20260509203541 21 34 0.0 8.0 0.03 0.91 0.84 73 1018.3
20260509203040 22 345 0.0 6.4 0.03 0.91 0.84 73 1018.3
20260509202535 22 16 0.0 11.3 0.03 0.91 0.84 72 1018.2
20260509202030 22 324 0.0 11.3 0.03 0.91 0.84 72 1018.0
20260509201526 22 306 0.0 8.0 0.03 0.91 0.84 72 1017.9
20260509201025 23 302 1.6 8.0 0.03 0.91 0.84 72 1018.1
20260509200518 23 53 1.6 6.4 0.03 0.91 0.84 79 1017.9
20260509200016 23 317 1.6 4.8 0.03 0.91 0.84 79 1017.8
20260509195514 24 322 0.0 4.8 0.05 0.89 0.81 80 1017.9
20260509195011 24 334 0.0 4.8 0.15 0.89 0.81 80 1018.0
20260509194513 24 18 0.0 6.4 0.25 0.89 0.81 80 1018.1
20260509194009 24 312 0.0 6.4 0.30 0.89 0.81 80 1018.0
20260509193508 24 259 0.0 3.2 0.30 0.89 0.81 80 1018.0
20260509193005 23 323 0.0 3.2 0.30 0.89 0.81 80 1017.9
20260509192502 23 355 0.0 1.6 0.30 0.89 0.81 79 1018.0
20260509192100 23 357 0.0 1.6 0.30 0.89 0.81 79 1018.0
20260509191557 23 357 0.0 11.3 0.33 0.89 0.81 77 1018.1
20260509191056 23 326 1.6 11.3 0.33 0.89 0.81 75 1018.3
20260509190553 23 269 3.2 6.4 0.33 0.89 0.81 74 1018.1
20260509190047 23 70 0.0 1.6 0.46 0.89 0.81 73 1018.4
20260509185544 23 155 0.0 1.6 0.66 0.84 0.76 72 1018.6
20260509185040 23 143 0.0 1.6 0.56 0.71 0.66 72 1018.6
20260509184549 23 278 0.0 1.6 0.46 0.64 0.56 71 1018.6
20260509184032 23 297 0.0 1.6 0.41 0.58 0.51 71 1018.4
20260509183526 23 271 0.0 1.6 0.41 0.58 0.51 71 1018.4
20260509183025 23 271 0.0 1.6 0.41 0.58 0.51 70 1018.5
20260509182523 23 282 0.0 1.6 0.43 0.58 0.51 70 1018.3
20260509182020 23 328 0.0 1.6 0.51 0.58 0.51 70 1018.5
20260509181515 23 320 0.0 3.2 0.48 0.56 0.48 70 1018.4
20260509181012 23 248 0.0 3.2 0.48 0.56 0.48 69 1018.5
20260509180509 24 318 0.0 8.0 0.46 0.53 0.46 69 1018.5
20260509180008 24 347 1.6 8.0 0.33 0.41 0.33 69 1018.6
20260509175504 25 311 0.0 1.6 0.10 0.18 0.10 69 1018.5
20260509175100 25 252 0.0 1.6 0.10 0.18 0.10 68 1018.4
20260509174557 25 250 0.0 1.6 0.10 0.18 0.10 68 1018.5
20260509174054 25 321 0.0 1.6 0.10 0.18 0.10 68 1018.5
20260509173550 26 280 0.0 6.4 0.10 0.18 0.10 67 1018.5
20260509173049 26 268 0.0 6.4 0.10 0.18 0.10 64 1018.6
20260509172544 27 290 0.0 6.4 0.08 0.15 0.08 59 1018.5
20260509172043 28 307 0.0 4.8 0.00 0.08 0.00 55 1018.5
20260509171538 28 239 0.0 4.8 0.00 0.08 0.00 56 1018.5
20260509171035 28 352 0.0 4.8 0.00 0.08 0.00 57 1018.6
20260509170532 28 259 1.6 4.8 0.00 0.08 0.00 57 1018.7
20260509170037 28 255 1.6 6.4 0.00 0.08 0.00 58 1018.8
20260509165522 28 263 0.0 6.4 0.00 0.08 0.00 58 1018.7
20260509165020 28 269 0.0 4.8 0.00 0.08 0.00 58 1018.8
20260509164531 28 261 0.0 4.8 0.00 0.08 0.00 57 1018.7
20260509164020 28 270 1.6 4.8 0.00 0.08 0.00 56 1018.9
20260509163511 28 203 1.6 6.4 0.00 0.08 0.00 57 1018.8
20260509163007 28 205 0.0 6.4 0.00 0.08 0.00 58 1018.8
20260509162507 28 169 1.6 6.4 0.00 0.08 0.00 57 1018.8
20260509162001 28 184 1.6 8.0 0.00 0.08 0.00 58 1018.9
20260509161608 27 193 1.6 8.0 0.00 0.08 0.00 58 1019.0
20260509161101 27 270 1.6 9.7 0.00 0.08 0.00 59 1018.9
20260509160557 27 251 1.6 9.7 0.00 0.08 0.00 59 1019.0
20260509160051 27 255 1.6 8.0 0.00 0.08 0.00 60 1018.9
20260509155545 27 181 3.2 8.0 0.00 0.08 0.00 60 1018.9
20260509155042 27 174 3.2 8.0 0.00 0.08 0.00 61 1019.0
20260509154540 26 269 0.0 4.8 0.00 0.08 0.00 62 1018.8
20260509154033 26 82 0.0 3.2 0.00 0.08 0.00 63 1018.6
20260509153527 26 266 1.6 4.8 0.00 0.08 0.00 62 1018.5
20260509153035 26 162 0.0 3.2 0.00 0.08 0.00 63 1018.5
20260509152523 26 261 0.0 4.8 0.00 0.08 0.00 63 1018.6
20260509152018 26 145 0.0 3.2 0.00 0.08 0.00 63 1018.6
20260509151516 26 264 0.0 4.8 0.00 0.08 0.00 64 1018.7
20260509151009 26 268 0.0 4.8 0.00 0.08 0.00 63 1018.7
20260509150508 25 290 0.0 4.8 0.00 0.08 0.00 64 1018.6